Wind_Speed
45 44 43 43 41 40 41 42 41 40 40 39 38 37 36 36 34 33 33 32 31 31 30 30 29 29 28 28 28 28 28 29 29 30 30 29 28 28 28 28 28 27 26
48 47 45 44 43 42 42 42 43 43 42 41 40 39 38 38 37 36 35 34 34 33 32 32 32 31 31 30 30 30 30 31 31 32 31 31 30 30 29 29 28 28 27
51 50 48 47 45 44 44 44 44 44 44 42 42 41 40 39 39 38 37 36 36 35 35 34 34 33 33 33 33 33 33 33 32 33 33 32 31 31 30 30 29 29 28
53 53 51 49 47 47 46 46 45 45 45 44 44 43 42 41 41 40 39 39 38 37 37 36 36 35 35 35 35 35 34 34 34 34 33 32 32 32 31 31 30 30 29
56 54 53 52 49 48 48 47 47 46 45 45 45 45 44 43 43 42 41 41 40 40 40 39 38 38 37 37 36 36 35 34 34 34 34 34 33 33 33 32 31 31 30
58 56 54 53 51 50 48 48 49 48 47 46 46 46 46 45 44 44 43 43 43 43 42 41 41 40 40 38 38 37 36 36 36 35 35 35 35 35 34 33 32 32 31
59 58 56 55 53 51 50 50 50 49 49 48 48 48 48 48 47 46 45 45 45 45 45 44 43 42 41 40 39 39 39 38 38 38 37 36 36 37 36 35 34 33 32
60 59 57 56 54 53 51 52 51 51 51 50 50 50 50 49 48 48 48 47 47 46 46 45 44 43 43 42 41 40 40 40 40 39 39 38 39 38 37 37 36 34 33
59 59 59 57 56 54 54 53 52 50 51 51 52 52 50 49 49 48 48 48 47 46 46 45 44 44 44 44 42 42 42 42 41 41 40 40 39 39 39 38 37 35 34
57 57 57 57 56 55 54 54 53 52 52 52 52 52 51 50 51 50 50 48 48 47 46 45 45 46 46 46 45 44 45 44 43 43 42 41 40 39 38 37 36 36 35
52 54 55 56 56 56 55 54 53 53 52 53 53 52 51 51 50 51 50 49 49 48 48 47 47 47 48 47 47 47 47 46 45 44 43 42 41 40 39 37 37 37 37
49 50 53 54 55 55 56 56 54 54 53 53 53 52 52 52 51 50 50 51 52 51 50 49 49 50 50 49 49 48 47 46 46 45 44 42 41 40 38 37 37 38 38
46 48 51 52 52 53 54 56 56 55 54 54 53 53 54 54 54 54 53 53 54 54 53 52 51 51 50 49 48 47 46 46 45 44 43 43 42 41 40 39 38 38 38
43 45 46 49 50 51 52 54 56 55 55 55 54 54 54 55 55 55 54 54 54 53 52 52 51 51 51 49 48 47 46 45 45 44 44 43 42 41 41 40 39 39 39
37 41 43 45 47 48 50 52 54 55 56 56 55 54 54 55 54 54 54 54 54 53 51 50 51 51 50 50 49 49 47 47 46 44 43 43 43 43 42 41 41 41 40
34 36 38 41 44 46 49 50 52 53 55 56 56 56 56 56 56 55 54 54 54 53 53 52 52 52 52 52 51 50 48 48 46 44 43 43 43 42 42 42 43 42 42
33 34 36 39 41 43 45 48 50 51 54 55 56 57 57 57 57 56 56 57 57 56 55 54 53 53 53 53 52 51 50 47 46 46 45 44 43 43 43 43 42 42 42
34 35 37 39 42 43 45 47 48 50 51 54 56 57 58 58 58 58 58 57 56 56 57 56 55 55 54 54 54 53 52 50 48 47 47 47 46 46 46 44 44 43 42
33 35 38 40 42 43 44 46 48 51 52 54 55 57 58 59 59 60 59 59 58 58 58 58 58 58 56 56 56 55 53 52 51 50 49 49 49 48 47 46 45 44 43
33 35 38 40 41 43 44 46 48 52 54 54 56 57 59 60 60 61 61 62 62 61 60 60 61 61 59 58 58 57 55 54 53 53 52 51 51 50 49 48 47 46 45
34 36 38 40 42 44 47 48 50 51 54 55 56 58 59 61 62 62 63 63 63 63 63 62 62 62 60 59 58 58 57 56 56 55 54 54 53 51 50 49 48 47 46
35 37 40 42 44 47 49 51 52 53 55 56 57 58 59 61 63 63 64 64 64 64 64 63 62 61 60 59 58 59 58 57 57 56 56 55 54 53 52 50 49 47 45
37 39 41 44 46 49 51 52 54 56 57 58 59 60 60 61 62 63 63 63 64 64 64 63 62 61 61 60 60 60 59 59 58 57 57 56 55 53 52 52 50 48 46
39 41 44 46 48 50 52 54 56 57 58 60 61 61 61 61 62 63 64 65 65 65 65 65 64 62 62 61 60 60 60 60 60 59 58 57 55 54 53 52 51 49 46
43 45 47 50 51 53 55 56 57 58 58 59 60 61 61 62 63 65 66 67 67 67 67 67 66 63 61 61 62 62 61 60 59 58 58 56 55 54 53 52 50 47 45
47 49 50 51 53 54 55 55 56 57 57 57 58 60 60 61 62 63 64 65 66 66 66 66 65 64 63 61 61 61 60 59 58 57 56 55 54 52 51 50 49 47 44
Wind_Direction
248 250 251 251 251 251 251 251 250 250 251 251 251 252 252 252 252 253 255 256 257 257 259 261 263 265 267 271 273 276 278 280 283 286 288 291 293 297 299 300 300 302 304
246 247 250 250 250 250 250 251 251 251 251 252 252 253 253 253 253 254 255 256 257 258 259 261 263 264 267 270 272 274 277 280 283 284 286 288 290 294 297 298 298 299 302
246 247 248 248 249 250 251 252 252 252 251 252 253 253 254 254 254 254 256 257 258 259 260 261 263 264 266 268 271 274 276 279 281 284 285 287 289 292 295 296 296 297 299
246 247 247 248 248 249 250 250 251 252 252 252 252 253 253 254 255 255 256 257 258 259 260 261 263 264 266 268 270 272 274 276 279 282 284 286 287 290 293 294 293 294 296
245 246 246 246 246 247 248 248 250 251 252 253 253 253 253 254 255 256 257 258 259 260 261 261 263 264 266 267 269 271 272 274 277 280 283 284 285 288 291 292 292 293 294
244 244 244 244 245 245 246 248 249 250 252 253 253 253 254 254 255 256 257 258 259 260 261 261 263 264 266 266 268 269 270 273 275 278 281 282 283 286 289 290 290 291 292
243 243 242 243 243 245 246 247 247 248 250 252 254 254 254 254 255 257 258 260 261 261 262 262 263 265 265 266 267 268 269 272 273 276 278 280 282 285 287 287 288 289 290
243 242 242 242 243 244 244 246 247 248 249 251 254 255 254 255 256 257 259 260 261 262 263 263 263 263 264 265 267 268 269 271 272 274 277 279 282 283 285 285 286 287 288
244 243 242 242 242 243 245 245 246 246 250 251 252 254 255 256 257 259 260 260 260 261 262 263 263 263 263 264 266 268 269 269 270 273 275 278 281 283 283 283 283 284 286
243 243 242 242 242 242 244 245 246 248 249 250 251 253 255 257 258 259 259 260 260 260 262 262 263 263 263 264 266 267 269 269 270 272 275 277 279 281 280 281 281 282 284
243 243 242 242 242 243 243 244 246 247 248 250 251 253 255 256 258 259 260 260 261 262 262 262 263 262 264 265 266 268 269 269 270 272 274 274 275 277 278 279 280 281 284
242 242 242 242 242 243 244 245 248 247 249 251 252 252 254 256 259 259 260 261 261 261 262 263 263 264 265 266 268 269 269 269 270 272 272 273 273 275 276 278 280 281 284
243 243 242 242 243 244 244 246 249 249 250 253 253 254 255 257 258 258 260 262 262 262 262 263 263 264 265 267 268 268 268 268 269 270 271 271 272 274 274 276 278 280 282
244 244 244 244 246 246 247 247 248 249 251 253 254 254 255 256 257 258 259 261 262 262 261 262 263 263 264 265 266 266 266 266 267 269 270 270 271 272 272 274 276 279 281
246 246 245 246 246 248 248 249 250 251 252 253 254 255 256 256 256 257 259 260 260 261 261 262 263 264 264 263 263 265 267 268 268 269 270 271 269 269 270 272 276 279 280
249 248 247 246 248 249 251 252 252 252 252 253 254 255 257 257 257 259 259 260 261 262 263 264 263 263 263 264 264 265 267 268 266 268 269 270 270 269 270 272 276 278 279
252 252 251 250 251 252 253 253 254 254 254 255 255 256 256 256 257 259 259 260 261 262 263 263 261 261 263 264 264 265 266 266 265 266 267 268 268 269 272 273 276 277 278
255 254 254 253 253 255 256 256 256 257 257 257 257 257 257 258 258 260 260 261 261 262 263 262 261 261 263 263 264 265 265 263 263 265 265 266 267 268 270 272 274 276 277
258 257 257 258 258 259 258 259 259 259 260 260 260 259 259 259 259 259 260 261 261 263 263 262 260 261 262 262 262 264 264 263 263 264 264 266 267 268 269 271 272 273 275
265 264 263 263 263 262 262 262 262 261 261 261 262 261 260 261 260 260 260 261 262 263 263 261 261 261 261 262 262 262 263 263 263 264 264 266 266 267 268 269 270 271 272
271 270 268 268 267 266 266 265 265 265 263 263 263 262 262 261 260 260 260 261 261 261 261 261 261 260 260 260 260 261 262 261 261 262 263 265 265 265 265 267 268 269 270
275 275 274 272 271 270 270 269 268 267 266 265 264 264 263 262 261 260 260 260 260 259 259 260 260 259 259 259 260 260 261 261 262 262 262 263 263 264 264 266 266 267 267
281 279 278 276 276 275 273 272 271 270 268 267 266 265 264 264 263 261 259 258 258 258 258 258 259 260 259 259 260 261 261 261 262 262 262 262 262 261 262 263 263 264 265
286 284 282 281 280 278 276 275 273 272 270 268 267 267 265 265 263 261 260 259 258 259 259 258 258 258 259 259 259 260 260 260 261 261 260 260 260 259 260 259 260 262 263
289 288 286 283 282 280 279 277 275 273 271 270 268 267 266 265 264 263 261 260 260 260 259 258 258 258 258 258 257 257 258 259 258 258 258 258 258 258 258 257 257 258 259
291 290 288 286 284 282 280 279 277 275 273 271 269 268 267 266 265 264 263 261 261 260 259 258 258 257 257 258 256 256 256 256 256 256 256 255 256 255 256 255 254 255 254
Height
5807 5809 5811 5812 5815 5816 5818 5819 5821 5823 5824 5826 5827 5829 5831 5832 5833 5834 5835 5835 5836 5836 5836 5837 5837 5837 5837 5836 5836 5835 5834 5834 5833 5831 5830 5829 5827 5826 5824 5822 5820 5819 5817
5797 5800 5802 5805 5806 5808 5810 5811 5813 5815 5817 5819 5820 5822 5823 5825 5826 5827 5828 5829 5830 5830 5830 5831 5831 5831 5831 5831 5830 5829 5828 5828 5827 5825 5824 5823 5822 5820 5819 5817 5815 5813 5811
5787 5790 5793 5796 5798 5800 5802 5803 5805 5807 5809 5811 5813 5814 5816 5817 5819 5820 5821 5822 5823 5823 5824 5824 5824 5824 5824 5824 5824 5823 5822 5821 5820 5819 5818 5817 5816 5814 5813 5811 5810 5808 5806
5777 5780 5783 5786 5788 5791 5793 5795 5797 5799 5801 5803 5804 5806 5808 5809 5811 5812 5813 5814 5815 5816 5816 5817 5817 5817 5817 5817 5817 5816 5815 5815 5814 5813 5812 5811 5810 5808 5807 5805 5804 5802 5800
5766 5769 5773 5776 5778 5781 5783 5785 5787 5789 5792 5794 5796 5797 5799 5800 5802 5804 5805 5806 5807 5808 5808 5809 5809 5809 5809 5809 5809 5809 5808 5808 5807 5806 5805 5804 5803 5802 5800 5799 5797 5796 5794
5754 5758 5762 5765 5768 5770 5773 5775 5778 5780 5782 5784 5786 5787 5790 5791 5793 5795 5796 5798 5799 5799 5800 5800 5801 5801 5801 5801 5801 5801 5801 5800 5800 5799 5798 5797 5797 5795 5794 5792 5791 5790 5788
5742 5746 5750 5754 5757 5760 5763 5765 5767 5770 5772 5774 5775 5777 5780 5782 5784 5785 5787 5788 5790 5790 5791 5792 5792 5792 5792 5793 5793 5793 5793 5792 5792 5791 5791 5790 5789 5788 5787 5785 5784 5783 5781
5729 5733 5738 5742 5746 5749 5752 5755 5757 5759 5762 5764 5765 5767 5769 5772 5774 5775 5777 5778 5780 5780 5781 5782 5783 5783 5783 5784 5784 5784 5784 5784 5783 5783 5783 5782 5781 5780 5779 5778 5777 5776 5774
5716 5721 5726 5731 5734 5738 5741 5743 5746 5748 5751 5753 5754 5756 5758 5761 5763 5765 5766 5767 5769 5770 5771 5772 5772 5773 5773 5774 5775 5775 5774 5774 5774 5774 5774 5774 5773 5772 5771 5770 5769 5768 5767
5704 5709 5714 5718 5722 5726 5729 5732 5734 5737 5739 5741 5743 5745 5748 5750 5752 5754 5756 5756 5757 5759 5760 5761 5762 5762 5763 5764 5765 5765 5765 5765 5765 5765 5765 5765 5764 5764 5763 5761 5761 5760 5759
5692 5697 5701 5706 5710 5714 5717 5720 5723 5725 5727 5730 5732 5734 5736 5738 5740 5742 5744 5746 5747 5748 5749 5750 5751 5752 5752 5753 5754 5754 5755 5755 5755 5755 5755 5755 5755 5754 5754 5753 5752 5752 5751
5681 5685 5690 5694 5698 5702 5706 5708 5710 5713 5716 5718 5720 5722 5724 5727 5729 5730 5732 5734 5735 5737 5737 5738 5739 5741 5741 5742 5743 5744 5744 5744 5745 5745 5745 5745 5745 5745 5745 5744 5743 5743 5742
5672 5675 5679 5683 5687 5691 5694 5697 5698 5701 5704 5706 5708 5710 5712 5714 5717 5718 5720 5721 5722 5724 5725 5726 5728 5729 5730 5730 5732 5732 5733 5733 5734 5734 5735 5735 5735 5735 5735 5735 5734 5733 5733
5663 5665 5668 5672 5676 5679 5682 5685 5687 5690 5692 5694 5696 5698 5700 5702 5704 5705 5707 5708 5709 5711 5713 5715 5716 5717 5717 5719 5720 5720 5721 5722 5723 5723 5724 5724 5725 5725 5725 5725 5724 5724 5723
5654 5656 5659 5663 5666 5668 5671 5673 5676 5678 5680 5682 5684 5685 5687 5690 5691 5692 5694 5695 5697 5698 5700 5702 5704 5704 5705 5707 5708 5708 5710 5711 5711 5712 5712 5713 5714 5714 5714 5714 5714 5714 5713
5646 5648 5650 5653 5656 5658 5660 5662 5664 5666 5667 5669 5671 5673 5675 5677 5678 5679 5680 5681 5683 5684 5687 5690 5691 5692 5692 5694 5695 5696 5697 5698 5699 5700 5701 5702 5702 5702 5703 5703 5703 5703 5703
5638 5640 5642 5644 5646 5647 5649 5650 5652 5653 5655 5656 5658 5659 5661 5663 5663 5665 5666 5667 5669 5670 5673 5676 5677 5678 5679 5680 5682 5683 5684 5686 5687 5688 5689 5690 5691 5691 5692 5692 5692 5692 5692
5630 5632 5633 5634 5635 5637 5637 5638 5640 5640 5641 5642 5644 5645 5646 5647 5649 5650 5651 5653 5654 5656 5657 5660 5662 5663 5664 5666 5668 5669 5671 5672 5674 5676 5676 5677 5678 5679 5680 5680 5680 5680 5680
5622 5623 5623 5624 5625 5625 5625 5626 5626 5627 5628 5628 5628 5629 5630 5631 5633 5634 5636 5637 5639 5640 5641 5644 5646 5648 5650 5651 5653 5654 5656 5658 5660 5661 5662 5664 5665 5666 5667 5667 5668 5668 5669
5613 5613 5614 5614 5613 5613 5613 5612 5612 5613 5613 5613 5613 5613 5614 5615 5616 5618 5619 5621 5622 5623 5625 5626 5629 5631 5634 5635 5637 5639 5641 5643 5645 5646 5648 5650 5651 5652 5653 5655 5656 5656 5657
5604 5603 5603 5602 5601 5600 5600 5599 5598 5597 5597 5597 5596 5596 5597 5597 5598 5600 5601 5603 5604 5606 5607 5609 5611 5614 5617 5619 5621 5623 5625 5627 5628 5631 5632 5635 5636 5638 5640 5641 5642 5644 5645
5593 5592 5591 5590 5588 5586 5585 5583 5582 5581 5580 5580 5579 5579 5578 5579 5579 5581 5582 5584 5586 5587 5589 5591 5594 5596 5599 5602 5604 5605 5607 5609 5612 5616 5616 5619 5621 5623 5626 5628 5629 5631 5632
5582 5580 5577 5575 5573 5571 5569 5567 5565 5563 5562 5561 5561 5560 5559 5559 5559 5560 5562 5564 5566 5567 5570 5572 5575 5578 5581 5584 5585 5587 5589 5592 5595 5598 5599 5602 5605 5608 5611 5613 5615 5617 5619
5570 5567 5563 5560 5558 5554 5551 5548 5546 5544 5543 5542 5540 5540 5539 5539 5539 5540 5541 5543 5545 5548 5550 5552 5555 5559 5561 5563 5565 5568 5571 5573 5577 5580 5583 5586 5589 5593 5596 5599 5601 5604 5606
5557 5553 5549 5545 5541 5537 5533 5529 5526 5524 5522 5521 5520 5519 5518 5519 5519 5520 5521 5523 5525 5526 5528 5530 5534 5537 5540 5543 5546 5548 5552 5555 5559 5563 5566 5570 5574 5577 5580 5584 5587 5590 5593
5543 5538 5533 5527 5523 5518 5514 5510 5505 5503 5502 5500 5499 5498 5497 5497 5498 5497 5498 5500 5502 5505 5507 5510 5512 5516 5519 5522 5526 5529 5533 5537 5541 5545 5550 5554 5557 5561 5565 5569 5573 5576 5580